This is the latest recevied weather packets stored in our database for station/object K7ZQU-7. If no packets are shown the sender has not sent any weather packets the latest 10 day(s).
| Time | Temp. | Humidity | Pressure | Rain* | Wind** | Luminosity | Snow |
|---|---|---|---|---|---|---|---|
| 1777692618 | 11.11° C | 76% | 1014.9 hPa | 0 mm | 0.89 m/s, 314° | - | - |
| 1777692319 | 11.67° C | 76% | 1015 hPa | 0 mm | 2.24 m/s, 307° | - | - |
| 1777692017 | 11.67° C | 75% | 1014.9 hPa | 0 mm | 0.89 m/s, 325° | - | - |
| 1777691718 | 11.67° C | 74% | 1015 hPa | 0 mm | 0.89 m/s, 314° | - | - |
| 1777691419 | 11.67° C | 74% | 1015 hPa | 0 mm | 2.24 m/s, 330° | - | - |
| 1777690520 | 12.22° C | 71% | 1014.6 hPa | 0 mm | 1.79 m/s, 311° | - | - |
| 1777689922 | 12.78° C | 69% | 1014.6 hPa | 0 mm | 0.45 m/s, 307° | - | - |
| 1777689623 | 12.78° C | 69% | 1014.6 hPa | 0 mm | 0.89 m/s, 318° | - | - |
| 1777689324 | 13.33° C | 68% | 1014.7 hPa | 0 mm | 0.45 m/s, 284° | - | - |
| 1777689022 | 13.33° C | 67% | 1014.7 hPa | 0 mm | 0.89 m/s, 288° | - | - |
| 1777688130 | 13.89° C | 64% | 1014.9 hPa | 0 mm | 1.34 m/s, 273° | - | - |
| 1777687826 | 14.44° C | 62% | 1014.7 hPa | 0 mm | 1.34 m/s, 280° | - | - |
| 1777687524 | 14.44° C | 60% | 1014.7 hPa | 0 mm | 1.79 m/s, 316° | - | - |
| 1777686926 | 15° C | 58% | 1014.7 hPa | 0 mm | 1.79 m/s, 277° | - | - |
| 1777686328 | 15.56° C | 57% | 1014.7 hPa | 0 mm | 2.24 m/s, 300° | - | - |
| 1777686027 | 15.56° C | 56% | 1014.7 hPa | 0 mm | 1.79 m/s, 329° | - | - |
| 1777685728 | 16.11° C | 55% | 1014.9 hPa | 0 mm | 1.79 m/s, 318° | - | - |
| 1777685429 | 16.11° C | 54% | 1014.9 hPa | 0 mm | 2.24 m/s, 271° | - | - |
| 1777685130 | 16.11° C | 53% | 1014.9 hPa | 0 mm | 0.89 m/s, 333° | - | - |
| 1777684839 | 16.67° C | 51% | 1014.7 hPa | 0 mm | 1.79 m/s, 300° | - | - |
| 1777684531 | 16.67° C | 51% | 1014.7 hPa | 0 mm | 0.89 m/s, 307° | - | - |
| 1777684246 | 16.67° C | 50% | 1014.7 hPa | 0 mm | 1.34 m/s, 291° | - | - |
| 1777683931 | 17.22° C | 49% | 1014.7 hPa | 0 mm | 1.79 m/s, 308° | - | - |
| 1777683632 | 17.22° C | 48% | 1014.7 hPa | 0 mm | 1.79 m/s, 290° | - | - |
| 1777683333 | 17.22° C | 48% | 1014.7 hPa | 0 mm | 1.34 m/s, 311° | - | - |
* Rain latest hour (hover to see other rain measurements)
** Current wind speed in m/s (hover to see current wind gust speed)